Saipan, MP (96950)

11:33 PM ChST on August 19, 2017 (GMT +1000)
Red Cross-Airport | | Change Station

Elev 215 ft 15.13 °N, 145.72 °E | Updated 3 minutes ago

Rain
Rain
77.4 °F
Feels Like 79 °F
N
3.0
Wind Variable Wind from East
Gusts 3.0 mph

Today
High -- | Low -- °F
--% Chance of Precip.
Yesterday
High -- | Low -- °F
Precip. -- in
Pressure 29.97 in
Visibility 7.0 miles
Clouds Scattered Clouds 4200 ft
Heat Index 79 °F
Dew Point 75 °F
Humidity 92%
Rainfall in
Snow Depth Not available.
6:03 AM 6:38 PM
Waning Crescent, 7% visible
METAR PGSN 191254Z COR 10003KT 7SM RA SCT042 28/24 A2990 RMK AO2 SLP147 P0006 T02780244 $
Pressure 29.97 in
Visibility 7.0 miles
Clouds Scattered Clouds 4200 ft
Heat Index 79 °F
Dew Point 75 °F
Humidity 92%
Rainfall in
Snow Depth Not available.
6:03 AM 6:38 PM
Waning Crescent, 7% visible
METAR PGSN 191254Z COR 10003KT 7SM RA SCT042 28/24 A2990 RMK AO2 SLP147 P0006 T02780244 $

Get Severe Weather Alerts

Thanks for signing up!

Be on the lookout for a verification email in your inbox.

You'll start receiving the daily forecast at 6 AM.

×

10-Day Weather Forecast

Almanac

Astronomy

Aug. 19, 2017 Rise Set
Actual Time
Civil Twilight
Nautical Twilight
Astronomical Twilight
Moon
Length of Visible Light
Length of Day
Tomorrow will be .
, % of the Moon is Illuminated

Today's Extremes

State Highs State Lows

Community

WunderPhotos

Category 6

Welcome to Category 6. This is the collective home for Weather Underground's featured writeups by Dr. Jeff Masters (right), Bob Henson (left), Chris Burt, and other regular contributors.

Nearby

Air Quality

  Air Quality AQ Index Pollutant
Not available.

Snow Depth

Station Depth Elevation

Earthquake Activity

City Distance Mag. Time & Date
Minimum magnitude displayed is 2.5.

Coastal Water Temperatures

Place Temperature

Stations

Nearby Weather Stations

Station Location Temp. Windchill Dew Point Humidity Wind Precip. Elev Updated Type
                   

Watches & Warnings

There are currently no watches in effect.